{"data":{"norad_id":60335,"epoch":"2026-05-25T02:44:35.490624Z","epoch_age_seconds":65090,"freshness":"FRESH","line1":"1 60335U 24136G   26145.11429966  .00000230  00000+0  19896-4 0  9990","line2":"2 60335  53.1591  80.8140 0001243  90.8810 269.2333 15.30192864101368","mean_motion":15.30192864,"eccentricity":0.0001243,"inclination_deg":53.1591,"raan_deg":80.814,"arg_perigee_deg":90.881,"mean_anomaly_deg":269.2333,"bstar":1.9896e-5,"rev_number":10136,"period_min":94.105784563376,"perigee_km":474.38450200118,"apogee_km":476.08825062253,"semimajor_km":6853.3733763119,"source":"CELESTRAK","updated_at":"2026-05-25T13:38:19.233907Z"}}